Location: Hilton Head Island
(32.2163°N, 80.7526°W)
Time: 15:47:55
(UTC-05:00)

Explorer 11/Cluster Stage 4 - Pass Details

Date: 21 February 2026
Orbit: 463 x 1176 km, 28.8° (Epoch: 6 March)

Event Time Altitude Azimuth Distance (km) Brightness Sun altitude
Rises 11:52:32 0° 245° (WSW) 3,297 9.9 46.1°
Reaches altitude 10° 11:55:22 10° 239° (WSW) 2,236 9.2 46.3°
Maximum altitude 12:00:14 41° 169° (S) 921 10.0 46.5°
Drops below altitude 10° 12:04:15 10° 99° (E) 1,851 8.8 46.7°
Sets 12:06:25 0° 91° (E) 2,665 9.4 46.8°
